Content
SEND FEEDBACK

Daily
Averages
Monthly
Summary
United States of America

FISKDALE, MASSACHUSETTS


Home > North America > United States > Massachusetts
Elevation: 770 feet     Latitude: 42 07N     Longitude: 072 08W

WEATHER
 
SELECT A DAY
Number of Records: 232,616;   Date Range: 1/1/95 - 7/22/14
 
SHARE

PRINT THIS DATA

[ ← Previous Day ]
WEATHER ALMANAC - FEBRUARY 13, 2013
[ Next Day → ]
[ °C ]   °F
Weather ElementAverageHighLow
Temperature32.8 °F37.9 °F (3:54 pm)28.9 °F (2:54 am)
Dewpoint19.9 °F21 °F (7:54 am)18 °F (1:54 am)
Humidity59.5 %69 % (3:54 am)47 % (3:54 pm)
Barometer29.80 in29.86 in (4:54 am)29.71 in (10:54 pm)
Wind Speed7.6 mph12.7 mph (8:54 am)
Weather ElementAverage
Visibility10 mi
Wind DirectionWSW (242.1 °)

Weather ElementTotal
Precipitation---
Heating Degree Days31.6 (Base 65)
Averaged from 29 records on February 13, 2013
WEATHER CONDITIONS BREAKOUT
WIND DIRECTION BREAKOUT
WEATHER BY HOUR - FEBRUARY 13, 2013
[ °C ]   °F
Local TimeTemperatureDewpointHumidityBarometerVisibilityWind DirectionWind SpeedGust SpeedPrecipitationEventsConditions
1:54 AM30.9 °F18.0 °F59 %29.83 in10.0 miWest (280°)9.2 mphClear
2:54 AM28.9 °F19.0 °F67 %29.84 in10.0 miWSW (250°)9.2 mphClear
3:54 AM28.9 °F19.9 °F69 %29.85 in10.0 miWest (270°)11.5 mphMostly Cloudy
4:54 AM30.0 °F19.9 °F66 %29.86 in10.0 miWest (270°)11.5 mphOvercast
5:44 AM30.0 °F19.9 °F66 %29.81 in10.0 miWest (270°)8.1 mphMostly Cloudy
5:54 AM30.0 °F19.9 °F66 %29.84 in10.0 miWest (260°)6.9 mphMostly Cloudy
6:40 AM28.9 °F19.9 °F69 %29.82 in10.0 miWest (270°)9.2 mphPartly Cloudy
6:54 AM28.9 °F19.9 °F69 %29.86 in10.0 miWest (280°)6.9 mphPartly Cloudy
7:54 AM30.0 °F21.0 °F69 %29.85 in10.0 miNW (310°)9.2 mphClear
8:54 AM32.0 °F21.0 °F64 %29.86 in10.0 miWNW (300°)12.7 mphClear
9:13 AM32.0 °F21.0 °F64 %29.83 in10.0 miWest (280°)12.7 mphMostly Cloudy
9:54 AM32.0 °F21.0 °F64 %29.85 in10.0 miNW (310°)9.2 mphMostly Cloudy
10:54 AM33.1 °F21.0 °F61 %29.83 in10.0 miWest (260°)6.9 mphMostly Cloudy
11:01 AM34.0 °F21.0 °F59 %29.80 in10.0 miWest (280°)5.8 mphScattered Clouds
11:22 AM35.1 °F21.0 °F57 %29.80 in10.0 miWNW (300°)8.1 mphMostly Cloudy
11:40 AM34.0 °F21.0 °F59 %29.79 in10.0 miWNW (290°)11.5 mphScattered Clouds
11:54 AM35.1 °F21.0 °F57 %29.82 in10.0 miWSW (240°)6.9 mphClear
12:54 PM36.0 °F21.0 °F55 %29.81 in10.0 miWSW (250°)9.2 mphPartly Cloudy
1:54 PM36.0 °F19.9 °F52 %29.80 in10.0 miWNW (300°)6.9 mphPartly Cloudy
2:54 PM37.0 °F19.9 °F50 %29.77 in10.0 miVariable3.5 mphClear
3:54 PM37.9 °F19.0 °F47 %29.76 in10.0 miVariable3.5 mphClear
4:54 PM36.0 °F19.0 °F50 %29.75 in10.0 miWNW (300°)3.5 mphClear
5:54 PM35.1 °F19.0 °F52 %29.74 in10.0 miCalmClear
6:54 PM34.0 °F19.9 °F56 %29.75 in10.0 miNorth (350°)3.5 mphClear
7:54 PM34.0 °F19.0 °F54 %29.74 in10.0 miNorth (350°)4.6 mphPartly Cloudy
8:54 PM33.1 °F19.0 °F56 %29.73 in10.0 miNorth (360°)6.9 mphOvercast
9:54 PM33.1 °F19.0 °F56 %29.72 in10.0 miNNE (20°)9.2 mphOvercast
10:54 PM32.0 °F18.0 °F56 %29.71 in10.0 miNNE (20°)8.1 mphOvercast
11:54 PM32.0 °F18.0 °F56 %29.71 in10.0 miNorth (350°)6.9 mphOvercast
Hourly data recorded from KORH, located miles away from Fiskdale, Massachusetts







STORIES FROM OUR PARTNERS